sat.trackr.live / text

‹ back to catalog

STARLINK-5749

NORAD 55569 · 2023-020A

PAYLOAD ACTIVE UNKNOWN

§ Identity

Operator
Country
US
Launch date
2023-02-12
Launch site
AFETR
Launch vehicle
Mass (kg)
RCS (m²)

Purposes: comms

External: N2YO · Heavens-Above · Gunter

§ Orbital elements

Epoch: 2026-05-25T03:36:19.344096Z

Period
94.37 min
Inclination
43.0027°
Eccentricity
0.0001919
Mean motion
15.25908127 rev/d
Perigee alt
486.7 km
Apogee alt
489.4 km
Semi-major
6,866.2 km
B*
2.5411e-5
RAAN
297.0495°
Arg perigee
279.3291°
Mean anomaly
80.7343°
Rev number
18,163

§ Raw data

STARLINK-57491 55569U 23020A   26145.15022389  .00000407  00000+0  25411-4 0  99922 55569  43.0027 297.0495 0001919 279.3291  80.7343 15.25908127181631

JSON: /api/v1/satellites/55569 · /tle

For live sub-satellite position, see the globe view (requires WebGL).

§ Visibility from observer

Set your observer location to see the next 7 days of passes ≥ 10°. The values pass through the URL so the page stays shareable.

No JS? Fill the form by hand. The geolocation button needs JavaScript.